{"data":{"norad_id":64796,"intl_designator":"2025-150G","name":"STARLINK-34646","alt_names":[],"object_type":"PAYLOAD","status":"ACTIVE","operator":null,"country":"US","launch_date":"2025-07-16","launch_site_code":"AFWTR","launch_vehicle":null,"mission":null,"orbit_class":"UNKNOWN","rcs_meters":null,"size_class":null,"mass_kg":null,"dimensions":null,"purposes":["comms"],"wikipedia_slug":null,"has_3d_model":false,"image_url":null,"decayed_at":null,"tle_current":{"epoch":"2026-05-24T20:32:55.252320Z","epoch_age_seconds":97689,"freshness":"FRESH","line1":"1 64796U 25150G   26144.85619505  .00002175  00000+0  19002-3 0  9990","line2":"2 64796  70.0007 302.4943 0002750 263.7269  96.3577 14.98335230 48818","mean_motion":14.9833523,"eccentricity":0.000275,"inclination_deg":70.0007,"raan_deg":302.4943,"arg_perigee_deg":263.7269,"mean_anomaly_deg":96.3577,"bstar":0.00019002,"rev_number":4881,"period_min":96.106663660308,"perigee_km":570.12841905053,"apogee_km":573.95101624524,"semimajor_km":6950.1767176479,"source":"CELESTRAK","updated_at":"2026-05-25T13:38:20.564008Z"}}}